This demonstration page uses our WeatherBlox Daily Observations layout. Learn more.

Left ArrowRight Arrow

Hourly Observations for November 11, 2020

Temp ( °F °C ) Dew Point ( °F °C ) Humidity (%) Winds ( mph kmh ) Pressure ( in mb ) Visibility ( mi km ) Precip ( " mm )
12:51 am 00:51 Clear 35 1.7 9 -12.8 34 34 E 6 9 30.00 1016 10 16 0.00 0.00
1:51 am 01:51 Clear 33 0.6 9 -12.8 36 36 SE 6 9 29.99 1016 10 16 0.00 0.00
2:51 am 02:51 Clear 31 -0.6 9 -12.8 40 40 Calm 29.99 1016 10 16 0.00 0.00
3:51 am 03:51 Clear 29 -1.7 10 -12.2 45 45 Calm 29.98 1015 10 16 0.00 0.00
4:51 am 04:51 Clear 30 -1.1 9 -12.8 41 41 E 5 7 30.00 1016 10 16 0.00 0.00
5:51 am 05:51 Clear 31 -0.6 12 -11.1 45 45 Calm 30.03 1017 10 16 0.00 0.00
6:51 am 06:51 Sunny 29 -1.7 11 -11.7 47 47 Calm 30.05 1018 10 16 0.00 0.00
7:51 am 07:51 Sunny 36 2.2 14 -10 40 40 Calm 30.07 1018 10 16 0.00 0.00
8:51 am 08:51 Sunny 42 5.6 13 -10.6 30 30 Calm 30.06 1018 10 16 0.00 0.00
9:51 am 09:51 Sunny 52 11.1 18 -7.8 26 26 SSE 9 15 30.05 1018 10 16 0.00 0.00
10:51 am 10:51 Sunny 55 12.8 17 -8.3 22 22 S 6 9 30.04 1017 10 16 0.00 0.00
11:51 am 11:51 Sunny 58 14.4 17 -8.3 20 20 S 6 9 30.00 1016 10 16 0.00 0.00
12:51 pm 12:51 Sunny 61 16.1 16 -8.9 17 17 S 6 9 29.97 1015 10 16 0.00 0.00
1:51 pm 13:51 Sunny 63 17.2 17 -8.3 17 17 SSW 6 9 29.94 1014 10 16 0.00 0.00
2:51 pm 14:51 Sunny 64 17.8 17 -8.3 16 16 Calm 29.92 1013 10 16 0.00 0.00
3:51 pm 15:51 Sunny 65 18.3 18 -7.8 16 16 W 6 9 29.92 1013 10 16 0.00 0.00
4:51 pm 16:51 Sunny 64 17.8 18 -7.8 17 17 WNW 6 9 29.92 1013 10 16 0.00 0.00
5:51 pm 17:51 Clear 57 13.9 17 -8.3 21 21 W 7 11 29.93 1014 10 16 0.00 0.00
7:51 pm 19:51 Clear 52 11.1 17 -8.3 25 25 WNW 7 11 29.95 1014 10 16 0.00 0.00
8:51 pm 20:51 Clear 46 7.8 17 -8.3 31 31 NNE 3 6 29.97 1015 10 16 0.00 0.00
9:51 pm 21:51 Clear 45 7.2 17 -8.3 33 33 E 5 7 29.97 1015 10 16 0.00 0.00
10:51 pm 22:51 Clear 43 6.1 18 -7.8 37 37 ENE 5 7 29.97 1015 10 16 0.00 0.00
11:51 pm 23:51 Clear 42 5.6 18 -7.8 38 38 Calm 29.98 1015 10 16 0.00 0.00

Powered by AerisWeather